Location: Rounton
(54.4000°N, 1.3500°W)
Time: 23:26:13
(UTC+01:00)

Vanguard 1 - Pass Details

Date: 26 February 2024
Orbit: 653 x 3825 km, 34.2° (Epoch: 21 April)

Event Time Altitude Azimuth Distance (km) Brightness Sun altitude
Rises 00:00:59 0° 265° (W) 6,781 14.4 -44.4°
Reaches altitude 10° 00:05:39 10° 257° (WSW) 6,122 14.0 -44.5°
Enters shadow 00:12:10 23° 242° (WSW) 5,430 13.5 -44.6°
Maximum altitude 00:22:55 35° 202° (SSW) 5,065 - -44.6°
Drops below altitude 10° 00:41:47 10° 147° (SSE) 6,630 - -44.3°
Sets 00:47:11 0° 139° (SE) 7,377 - -44.2°
